Time,TemperatureF,DewpointF,PressureIn,WindDirection,WindDirectionDegrees,WindSpeedMPH,WindSpeedGustMPH,Humidity,HourlyPrecipIn,Conditions,Clouds,dailyrainin,SolarRadiationWatts/m^2,SoftwareType,DateUTC
2013-06-06 00:01:00,54.7,51.8,30.12,SSE,161,0.0,0.0,90,0.00,,,0.00,0,Wunderground v.1.15,2013-06-06 04:01:00,
2013-06-06 00:11:00,54.8,52.2,30.12,SSE,161,0.0,0.0,91,0.00,,,0.00,0,Wunderground v.1.15,2013-06-06 04:11:00,
2013-06-06 00:20:00,54.8,52.2,30.11,SSE,161,0.0,0.0,91,0.00,,,0.00,0,Wunderground v.1.15,2013-06-06 04:20:00,
2013-06-06 00:26:00,54.9,52.3,30.11,SSE,161,0.0,0.0,91,0.00,,,0.00,0,Wunderground v.1.15,2013-06-06 04:26:00,
2013-06-06 00:31:00,54.9,52.3,30.11,SSE,161,0.0,0.0,91,0.00,,,0.00,0,Wunderground v.1.15,2013-06-06 04:31:00,
2013-06-06 00:40:00,55.1,52.5,30.11,SSE,161,0.0,0.0,91,0.00,,,0.00,0,Wunderground v.1.15,2013-06-06 04:40:00,
2013-06-06 00:50:00,55.4,52.8,30.12,SSE,161,0.0,0.0,91,0.00,,,0.00,0,Wunderground v.1.15,2013-06-06 04:50:00,
2013-06-06 00:56:00,55.9,53.3,30.12,SSE,161,0.0,0.0,91,0.00,,,0.00,0,Wunderground v.1.15,2013-06-06 04:56:00,
2013-06-06 01:01:00,56.4,53.5,30.12,SSE,161,0.0,0.0,90,0.00,,,0.00,0,Wunderground v.1.15,2013-06-06 05:01:00,
2013-06-06 01:11:00,56.2,53.3,30.12,SSE,161,0.0,0.0,90,0.00,,,0.00,0,Wunderground v.1.15,2013-06-06 05:11:00,
2013-06-06 01:21:00,55.9,53.3,30.12,SSE,161,0.0,0.0,91,0.00,,,0.00,0,Wunderground v.1.15,2013-06-06 05:21:00,
2013-06-06 01:31:00,55.9,53.3,30.12,SSE,161,0.0,0.0,91,0.00,,,0.00,0,Wunderground v.1.15,2013-06-06 05:31:00,
2013-06-06 01:40:00,56.3,53.7,30.11,SSE,161,0.0,0.0,91,0.00,,,0.00,0,Wunderground v.1.15,2013-06-06 05:40:00,
2013-06-06 01:46:00,56.3,53.4,30.11,SSE,161,0.0,0.0,90,0.00,,,0.00,0,Wunderground v.1.15,2013-06-06 05:46:00,
2013-06-06 01:56:00,55.8,52.9,30.11,SSE,161,0.0,0.0,90,0.00,,,0.00,0,Wunderground v.1.15,2013-06-06 05:56:00,
2013-06-06 02:01:00,55.9,53.3,30.12,SSE,161,0.0,0.0,91,0.00,,,0.00,0,Wunderground v.1.15,2013-06-06 06:01:00,
2013-06-06 02:11:00,55.4,52.8,30.12,SSE,161,0.0,0.0,91,0.00,,,0.00,0,Wunderground v.1.15,2013-06-06 06:11:00,
2013-06-06 02:21:00,55.5,52.9,30.13,SSE,161,0.0,0.0,91,0.00,,,0.00,0,Wunderground v.1.15,2013-06-06 06:21:00,
2013-06-06 02:30:00,55.7,53.1,30.13,SSE,161,0.0,0.0,91,0.00,,,0.00,0,Wunderground v.1.15,2013-06-06 06:30:00,
2013-06-06 02:36:00,55.7,53.1,30.13,SSE,161,0.0,0.0,91,0.00,,,0.00,0,Wunderground v.1.15,2013-06-06 06:36:00,
2013-06-06 02:46:00,55.5,52.9,30.13,SSE,161,0.0,0.0,91,0.00,,,0.00,0,Wunderground v.1.15,2013-06-06 06:46:00,
2013-06-06 02:55:00,55.5,53.2,30.14,SSE,161,0.0,0.0,92,0.00,,,0.00,0,Wunderground v.1.15,2013-06-06 06:55:00,
2013-06-06 03:01:00,55.4,53.1,30.13,SSE,161,0.0,0.0,92,0.00,,,0.00,0,Wunderground v.1.15,2013-06-06 07:01:00,
2013-06-06 03:11:00,55.2,52.9,30.14,SSE,161,0.0,0.0,92,0.00,,,0.00,0,Wunderground v.1.15,2013-06-06 07:11:00,
2013-06-06 03:26:00,54.6,52.3,30.14,SSE,161,0.0,0.0,92,0.00,,,0.00,0,Wunderground v.1.15,2013-06-06 07:26:00,
2013-06-06 03:36:00,54.5,52.5,30.13,SSE,161,0.0,0.0,93,0.00,,,0.00,0,Wunderground v.1.15,2013-06-06 07:36:00,
2013-06-06 03:46:00,53.8,51.8,30.13,SSE,161,0.0,0.0,93,0.00,,,0.00,0,Wunderground v.1.15,2013-06-06 07:46:00,
2013-06-06 03:56:00,53.3,51.3,30.13,SSE,161,0.0,1.0,93,0.00,,,0.00,0,Wunderground v.1.15,2013-06-06 07:56:00,
2013-06-06 04:01:00,53.1,51.1,30.14,SSE,161,0.0,0.0,93,0.00,,,0.00,0,Wunderground v.1.15,2013-06-06 08:01:00,
2013-06-06 04:11:00,52.9,50.9,30.14,SSE,161,0.0,0.0,93,0.00,,,0.00,0,Wunderground v.1.15,2013-06-06 08:11:00,
2013-06-06 04:21:00,52.5,50.8,30.14,SSE,161,0.0,0.0,94,0.00,,,0.00,0,Wunderground v.1.15,2013-06-06 08:21:00,
2013-06-06 04:31:00,52.0,50.3,30.14,SSE,161,0.0,0.0,94,0.00,,,0.00,0,Wunderground v.1.15,2013-06-06 08:31:00,
2013-06-06 04:41:00,51.7,50.0,30.14,SSE,161,0.0,0.0,94,0.00,,,0.00,0,Wunderground v.1.15,2013-06-06 08:41:00,
2013-06-06 04:51:00,51.3,49.6,30.14,SSE,161,0.0,0.0,94,0.00,,,0.00,0,Wunderground v.1.15,2013-06-06 08:51:00,
2013-06-06 05:05:00,51.0,49.3,30.13,SSE,161,0.0,0.0,94,0.00,,,0.00,0,Wunderground v.1.15,2013-06-06 09:05:00,
2013-06-06 05:11:00,50.9,49.5,30.14,SSE,161,0.0,0.0,95,0.00,,,0.00,0,Wunderground v.1.15,2013-06-06 09:11:00,
2013-06-06 05:21:00,50.8,49.4,30.14,SSE,161,0.0,0.0,95,0.00,,,0.00,5,Wunderground v.1.15,2013-06-06 09:21:00,
2013-06-06 05:31:00,50.7,49.3,30.14,SSE,161,0.0,0.0,95,0.00,,,0.00,16,Wunderground v.1.15,2013-06-06 09:31:00,
2013-06-06 05:41:00,50.6,49.2,30.14,SSE,161,0.0,0.0,95,0.00,,,0.00,23,Wunderground v.1.15,2013-06-06 09:41:00,
2013-06-06 05:51:00,50.8,49.4,30.14,SSE,161,0.0,0.0,95,0.00,,,0.00,28,Wunderground v.1.15,2013-06-06 09:51:00,
2013-06-06 06:01:00,51.1,50.0,30.15,SSE,161,0.0,0.0,96,0.00,,,0.00,42,Wunderground v.1.15,2013-06-06 10:01:00,
2013-06-06 06:11:00,51.6,50.5,30.15,SSE,161,0.0,0.0,96,0.00,,,0.00,47,Wunderground v.1.15,2013-06-06 10:11:00,
2013-06-06 06:26:00,52.0,50.9,30.15,SSE,161,0.0,0.0,96,0.00,,,0.00,67,Wunderground v.1.15,2013-06-06 10:26:00,
2013-06-06 06:36:00,52.6,51.5,30.16,SSE,161,0.0,0.0,96,0.00,,,0.00,84,Wunderground v.1.15,2013-06-06 10:36:00,
2013-06-06 06:46:00,53.4,52.3,30.16,SSE,161,0.0,0.0,96,0.00,,,0.00,88,Wunderground v.1.15,2013-06-06 10:46:00,
2013-06-06 06:56:00,54.1,53.0,30.15,SSE,161,0.0,0.0,96,0.00,,,0.00,90,Wunderground v.1.15,2013-06-06 10:56:00,
2013-06-06 07:01:00,54.3,52.9,30.15,SSE,161,0.0,0.0,95,0.00,,,0.00,81,Wunderground v.1.15,2013-06-06 11:01:00,
2013-06-06 07:11:00,54.8,53.4,30.16,SSE,161,0.0,0.0,95,0.00,,,0.00,76,Wunderground v.1.15,2013-06-06 11:11:00,
2013-06-06 07:16:00,55.1,53.4,30.16,SSE,161,0.0,0.0,94,0.00,,,0.00,88,Wunderground v.1.15,2013-06-06 11:16:00,
2013-06-06 07:26:00,55.8,53.5,30.17,SSE,161,0.0,0.0,92,0.00,,,0.00,88,Wunderground v.1.15,2013-06-06 11:26:00,
2013-06-06 07:36:00,56.4,53.5,30.17,SSE,161,0.0,0.0,90,0.00,,,0.00,86,Wunderground v.1.15,2013-06-06 11:36:00,
2013-06-06 07:41:00,56.8,53.3,30.17,SSE,161,0.0,0.0,88,0.00,,,0.00,90,Wunderground v.1.15,2013-06-06 11:41:00,
2013-06-06 07:51:00,57.6,53.4,30.17,SSE,161,0.0,0.0,86,0.00,,,0.00,97,Wunderground v.1.15,2013-06-06 11:51:00,
2013-06-06 08:06:00,59.0,54.2,30.16,NW,317,1.0,2.0,84,0.00,,,0.00,218,Wunderground v.1.15,2013-06-06 12:06:00,
2013-06-06 08:11:00,59.4,54.6,30.16,NW,321,1.0,1.0,84,0.00,,,0.00,160,Wunderground v.1.15,2013-06-06 12:11:00,
2013-06-06 08:21:00,60.4,54.5,30.16,NNW,338,1.0,4.0,81,0.00,,,0.00,378,Wunderground v.1.15,2013-06-06 12:21:00,
2013-06-06 08:31:00,61.3,54.4,30.16,North,355,1.0,1.0,78,0.00,,,0.00,478,Wunderground v.1.15,2013-06-06 12:31:00,
2013-06-06 08:36:00,61.8,54.5,30.16,NNW,348,0.0,1.0,77,0.00,,,0.00,480,Wunderground v.1.15,2013-06-06 12:36:00,
2013-06-06 08:46:00,62.2,53.8,30.16,North,355,1.0,1.0,74,0.00,,,0.00,531,Wunderground v.1.15,2013-06-06 12:46:00,
2013-06-06 08:56:00,63.1,55.0,30.16,NNW,329,1.0,3.0,75,0.00,,,0.00,506,Wunderground v.1.15,2013-06-06 12:56:00,
2013-06-06 09:01:00,63.4,54.6,30.16,NNW,334,1.0,1.0,73,0.00,,,0.00,561,Wunderground v.1.15,2013-06-06 13:01:00,
2013-06-06 09:19:00,64.8,55.6,30.16,NW,310,1.0,3.0,72,0.00,,,0.00,601,Wunderground v.1.15,2013-06-06 13:19:00,
2013-06-06 09:31:00,65.7,55.6,30.15,NNE,16,2.0,2.0,70,0.00,,,0.00,570,Wunderground v.1.15,2013-06-06 13:31:00,
2013-06-06 09:41:00,65.8,55.3,30.15,WNW,296,1.0,1.0,69,0.00,,,0.00,626,Wunderground v.1.15,2013-06-06 13:41:00,
2013-06-06 09:51:00,66.5,53.1,30.14,WNW,294,0.0,1.0,62,0.00,,,0.00,744,Wunderground v.1.15,2013-06-06 13:51:00,
2013-06-06 10:01:00,67.2,55.0,30.14,West,274,0.0,0.0,65,0.00,,,0.00,703,Wunderground v.1.15,2013-06-06 14:01:00,
2013-06-06 10:11:00,67.9,54.8,30.14,West,277,1.0,2.0,63,0.00,,,0.00,710,Wunderground v.1.15,2013-06-06 14:11:00,
2013-06-06 10:21:00,68.2,55.6,30.14,South,182,1.0,2.0,64,0.00,,,0.00,693,Wunderground v.1.15,2013-06-06 14:21:00,
2013-06-06 10:31:00,68.6,53.7,30.14,SSE,159,2.0,2.0,59,0.00,,,0.00,782,Wunderground v.1.15,2013-06-06 14:31:00,
2013-06-06 10:41:00,68.7,54.7,30.14,South,187,1.0,1.0,61,0.00,,,0.00,680,Wunderground v.1.15,2013-06-06 14:41:00,
2013-06-06 10:51:00,69.6,56.0,30.14,NE,46,1.0,1.0,62,0.00,,,0.00,439,Wunderground v.1.15,2013-06-06 14:51:00,
2013-06-06 11:06:00,69.5,55.0,30.14,South,181,0.0,2.0,60,0.00,,,0.00,485,Wunderground v.1.15,2013-06-06 15:06:00,
2013-06-06 11:16:00,69.3,54.8,30.14,SSE,160,1.0,1.0,60,0.00,,,0.00,417,Wunderground v.1.15,2013-06-06 15:16:00,
2013-06-06 11:26:00,69.0,54.1,30.14,SE,142,2.0,4.0,59,0.00,,,0.00,462,Wunderground v.1.15,2013-06-06 15:26:00,
2013-06-06 11:36:00,69.6,55.1,30.14,South,187,2.0,4.0,60,0.00,,,0.00,533,Wunderground v.1.15,2013-06-06 15:36:00,
2013-06-06 11:56:00,70.0,55.0,30.13,SSE,153,2.0,2.0,59,0.00,,,0.00,677,Wunderground v.1.15,2013-06-06 15:56:00,
2013-06-06 12:06:00,70.5,55.9,30.13,SSE,166,1.0,3.0,60,0.00,,,0.00,691,Wunderground v.1.15,2013-06-06 16:06:00,
2013-06-06 12:21:00,71.1,53.6,30.13,SSE,161,2.0,2.0,54,0.00,,,0.00,557,Wunderground v.1.15,2013-06-06 16:21:00,
2013-06-06 12:31:00,70.6,53.1,30.13,South,173,2.0,2.0,54,0.00,,,0.00,679,Wunderground v.1.15,2013-06-06 16:31:00,
2013-06-06 12:41:00,71.8,58.1,30.12,East,91,1.0,1.0,62,0.00,,,0.00,761,Wunderground v.1.15,2013-06-06 16:41:00,
2013-06-06 12:51:00,71.5,54.0,30.12,NW,315,2.0,3.0,54,0.00,,,0.00,842,Wunderground v.1.15,2013-06-06 16:51:00,
2013-06-06 13:01:00,71.6,55.6,30.11,South,187,2.0,3.0,57,0.00,,,0.00,916,Wunderground v.1.15,2013-06-06 17:01:00,
2013-06-06 13:11:00,73.4,54.2,30.11,SSE,155,2.0,3.0,51,0.00,,,0.00,870,Wunderground v.1.15,2013-06-06 17:11:00,
2013-06-06 13:21:00,72.6,52.9,30.12,South,186,3.0,6.0,50,0.00,,,0.00,615,Wunderground v.1.15,2013-06-06 17:21:00,
2013-06-06 13:36:00,73.3,54.6,30.11,SE,136,4.0,5.0,52,0.00,,,0.00,719,Wunderground v.1.15,2013-06-06 17:36:00,
2013-06-06 13:46:00,73.0,54.9,30.10,SSE,148,3.0,5.0,53,0.00,,,0.00,612,Wunderground v.1.15,2013-06-06 17:46:00,
2013-06-06 13:56:00,72.8,52.5,30.10,SSW,203,2.0,4.0,49,0.00,,,0.00,598,Wunderground v.1.15,2013-06-06 17:56:00,
2013-06-06 14:01:00,72.4,54.8,30.10,SSE,157,4.0,4.0,54,0.00,,,0.00,700,Wunderground v.1.15,2013-06-06 18:01:00,
2013-06-06 14:11:00,72.4,54.3,30.10,South,183,2.0,2.0,53,0.00,,,0.00,399,Wunderground v.1.15,2013-06-06 18:11:00,
2013-06-06 14:21:00,73.2,55.6,30.09,ESE,110,2.0,3.0,54,0.00,,,0.00,455,Wunderground v.1.15,2013-06-06 18:21:00,
2013-06-06 14:31:00,72.5,54.4,30.09,SE,144,3.0,3.0,53,0.00,,,0.00,476,Wunderground v.1.15,2013-06-06 18:31:00,
2013-06-06 14:36:00,72.6,54.5,30.09,SSW,211,2.0,3.0,53,0.00,,,0.00,378,Wunderground v.1.15,2013-06-06 18:36:00,
2013-06-06 14:46:00,72.4,56.8,30.09,SSE,155,1.0,5.0,58,0.00,,,0.00,288,Wunderground v.1.15,2013-06-06 18:46:00,
2013-06-06 14:56:00,71.4,57.2,30.09,SSE,152,2.0,2.0,61,0.00,,,0.00,253,Wunderground v.1.15,2013-06-06 18:56:00,
2013-06-06 15:01:00,71.1,59.6,30.09,SSE,153,1.0,1.0,67,0.00,,,0.00,323,Wunderground v.1.15,2013-06-06 19:01:00,
2013-06-06 15:11:00,71.6,58.8,30.08,East,94,1.0,1.0,64,0.00,,,0.00,490,Wunderground v.1.15,2013-06-06 19:11:00,
2013-06-06 15:21:00,71.7,58.0,30.08,East,93,1.0,2.0,62,0.00,,,0.00,585,Wunderground v.1.15,2013-06-06 19:21:00,
2013-06-06 15:31:00,72.6,57.9,30.08,SSE,157,2.0,3.0,60,0.00,,,0.00,513,Wunderground v.1.15,2013-06-06 19:31:00,
2013-06-06 15:36:00,72.6,57.9,30.08,SE,140,3.0,3.0,60,0.00,,,0.00,489,Wunderground v.1.15,2013-06-06 19:36:00,
2013-06-06 15:51:00,71.2,57.1,30.08,ESE,104,3.0,3.0,61,0.00,,,0.00,304,Wunderground v.1.15,2013-06-06 19:51:00,
2013-06-06 16:01:00,70.6,57.4,30.07,South,170,2.0,2.0,63,0.00,,,0.00,311,Wunderground v.1.15,2013-06-06 20:01:00,
2013-06-06 16:11:00,69.8,57.1,30.08,East,81,2.0,2.0,64,0.00,,,0.00,232,Wunderground v.1.15,2013-06-06 20:11:00,
2013-06-06 16:16:00,69.5,56.8,30.07,South,188,2.0,2.0,64,0.00,,,0.00,202,Wunderground v.1.15,2013-06-06 20:16:00,
2013-06-06 16:26:00,68.8,56.6,30.07,SSE,161,1.0,2.0,65,0.00,,,0.00,178,Wunderground v.1.15,2013-06-06 20:26:00,
2013-06-06 16:36:00,68.5,56.7,30.08,ESE,115,1.0,3.0,66,0.00,,,0.00,134,Wunderground v.1.15,2013-06-06 20:36:00,
2013-06-06 16:41:00,68.3,56.1,30.08,SSE,147,1.0,1.0,65,0.00,,,0.00,118,Wunderground v.1.15,2013-06-06 20:41:00,
2013-06-06 16:51:00,68.0,56.6,30.08,SSE,163,1.0,1.0,67,0.00,,,0.00,127,Wunderground v.1.15,2013-06-06 20:51:00,
2013-06-06 16:56:00,68.0,56.6,30.08,SSW,206,1.0,3.0,67,0.00,,,0.00,158,Wunderground v.1.15,2013-06-06 20:56:00,
2013-06-06 17:01:00,68.0,56.6,30.08,SE,144,1.0,1.0,67,0.00,,,0.00,183,Wunderground v.1.15,2013-06-06 21:01:00,
2013-06-06 17:11:00,67.8,56.0,30.08,ENE,69,1.0,1.0,66,0.00,,,0.00,178,Wunderground v.1.15,2013-06-06 21:11:00,
2013-06-06 17:16:00,67.7,56.3,30.08,ENE,69,0.0,1.0,67,0.00,,,0.00,142,Wunderground v.1.15,2013-06-06 21:16:00,
2013-06-06 17:31:00,67.4,56.1,30.08,SE,129,0.0,0.0,67,0.00,,,0.00,116,Wunderground v.1.15,2013-06-06 21:31:00,
2013-06-06 17:41:00,67.1,55.8,30.08,ESE,111,0.0,0.0,67,0.00,,,0.00,105,Wunderground v.1.15,2013-06-06 21:41:00,
2013-06-06 17:51:00,67.0,54.8,30.08,East,101,0.0,0.0,65,0.00,,,0.00,67,Wunderground v.1.15,2013-06-06 21:51:00,
2013-06-06 18:01:00,66.5,54.4,30.08,ENE,61,0.0,0.0,65,0.00,,,0.00,51,Wunderground v.1.15,2013-06-06 22:01:00,
2013-06-06 18:11:00,66.2,53.7,30.08,NNW,339,0.0,0.0,64,0.00,,,0.00,46,Wunderground v.1.15,2013-06-06 22:11:00,
2013-06-06 18:16:00,66.1,53.6,30.09,NNW,339,0.0,0.0,64,0.00,,,0.00,49,Wunderground v.1.15,2013-06-06 22:16:00,
2013-06-06 18:26:00,65.9,54.6,30.09,SSW,204,0.0,0.0,67,0.00,,,0.00,51,Wunderground v.1.15,2013-06-06 22:26:00,
2013-06-06 18:36:00,65.7,54.4,30.09,SSW,204,0.0,0.0,67,0.00,,,0.00,46,Wunderground v.1.15,2013-06-06 22:36:00,
2013-06-06 18:46:00,65.5,54.2,30.09,SSW,204,0.0,0.0,67,0.00,,,0.00,32,Wunderground v.1.15,2013-06-06 22:46:00,
2013-06-06 18:56:00,65.3,54.5,30.09,SSW,204,0.0,0.0,68,0.00,,,0.00,32,Wunderground v.1.15,2013-06-06 22:56:00,
2013-06-06 19:01:00,65.2,54.4,30.09,SSW,204,0.0,0.0,68,0.00,,,0.00,30,Wunderground v.1.15,2013-06-06 23:01:00,
2013-06-06 19:11:00,64.8,55.2,30.10,SSW,204,0.0,0.0,71,0.00,,,0.00,26,Wunderground v.1.15,2013-06-06 23:11:00,
2013-06-06 19:21:00,64.5,54.9,30.10,SSW,204,0.0,0.0,71,0.00,,,0.00,25,Wunderground v.1.15,2013-06-06 23:21:00,
2013-06-06 19:31:00,64.0,55.2,30.10,SSW,204,0.0,0.0,73,0.00,,,0.00,19,Wunderground v.1.15,2013-06-06 23:31:00,
2013-06-06 19:41:00,63.6,54.8,30.10,SSW,204,0.0,0.0,73,0.00,,,0.00,14,Wunderground v.1.15,2013-06-06 23:41:00,
2013-06-06 19:46:00,63.6,54.4,30.09,SSW,204,0.0,0.0,72,0.00,,,0.00,11,Wunderground v.1.15,2013-06-06 23:46:00,
2013-06-06 19:51:00,63.5,55.4,30.09,SSW,204,0.0,0.0,75,0.00,,,0.00,9,Wunderground v.1.15,2013-06-06 23:51:00,
2013-06-06 20:01:00,62.9,55.2,30.09,SSW,204,0.0,0.0,76,0.00,,,0.00,5,Wunderground v.1.15,2013-06-07 00:01:00,
2013-06-06 20:11:00,62.5,54.5,30.10,ESE,115,0.0,0.0,75,0.00,,,0.00,0,Wunderground v.1.15,2013-06-07 00:11:00,
2013-06-06 20:21:00,62.5,54.1,30.10,ESE,115,0.0,0.0,74,0.00,,,0.00,0,Wunderground v.1.15,2013-06-07 00:21:00,
2013-06-06 20:36:00,62.4,54.0,30.10,SE,138,0.0,0.0,74,0.00,,,0.00,0,Wunderground v.1.15,2013-06-07 00:36:00,
2013-06-06 20:46:00,61.6,54.3,30.11,SE,138,0.0,0.0,77,0.00,,,0.00,0,Wunderground v.1.15,2013-06-07 00:46:00,
2013-06-06 20:56:00,61.7,53.7,30.11,SE,138,0.0,0.0,75,0.00,,,0.00,0,Wunderground v.1.15,2013-06-07 00:56:00,
2013-06-06 21:01:00,61.4,54.1,30.11,SE,138,0.0,0.0,77,0.00,,,0.00,0,Wunderground v.1.15,2013-06-07 01:01:00,
2013-06-06 21:16:00,60.9,55.4,30.11,SE,138,0.0,0.0,82,0.00,,,0.00,0,Wunderground v.1.15,2013-06-07 01:16:00,
2013-06-06 21:26:00,60.5,54.3,30.11,SE,138,0.0,0.0,80,0.00,,,0.00,0,Wunderground v.1.15,2013-06-07 01:26:00,
2013-06-06 21:31:00,60.4,54.2,30.11,SE,138,0.0,0.0,80,0.00,,,0.00,0,Wunderground v.1.15,2013-06-07 01:31:00,
2013-06-06 21:46:00,60.0,54.5,30.09,SE,138,0.0,0.0,82,0.00,,,0.00,0,Wunderground v.1.15,2013-06-07 01:46:00,
2013-06-06 21:56:00,60.3,54.1,30.09,SE,138,0.0,0.0,80,0.00,,,0.00,0,Wunderground v.1.15,2013-06-07 01:56:00,
2013-06-06 22:01:00,60.2,54.0,30.08,SE,138,0.0,0.0,80,0.00,,,0.00,0,Wunderground v.1.15,2013-06-07 02:01:00,
2013-06-06 22:11:00,60.1,53.9,30.08,SE,138,0.0,0.0,80,0.00,,,0.00,0,Wunderground v.1.15,2013-06-07 02:11:00,
2013-06-06 22:16:00,59.8,53.6,30.08,SE,138,0.0,0.0,80,0.00,,,0.00,0,Wunderground v.1.15,2013-06-07 02:16:00,
2013-06-06 22:21:00,59.7,53.9,30.08,SE,138,0.0,0.0,81,0.00,,,0.00,0,Wunderground v.1.15,2013-06-07 02:21:00,
2013-06-06 22:31:00,59.3,54.5,30.09,SE,138,0.0,0.0,84,0.00,,,0.00,0,Wunderground v.1.15,2013-06-07 02:31:00,
2013-06-06 22:41:00,58.9,54.7,30.09,SE,138,0.0,0.0,86,0.00,,,0.00,0,Wunderground v.1.15,2013-06-07 02:41:00,
2013-06-06 22:51:00,58.4,54.2,30.09,SE,138,0.0,0.0,86,0.00,,,0.00,0,Wunderground v.1.15,2013-06-07 02:51:00,
2013-06-06 22:56:00,58.4,54.5,30.08,SE,138,0.0,0.0,87,0.00,,,0.00,0,Wunderground v.1.15,2013-06-07 02:56:00,
2013-06-06 23:01:00,58.2,54.7,30.08,SE,138,0.0,0.0,88,0.00,,,0.00,0,Wunderground v.1.15,2013-06-07 03:01:00,
2013-06-06 23:11:00,57.9,54.7,30.08,SE,138,0.0,0.0,89,0.00,,,0.00,0,Wunderground v.1.15,2013-06-07 03:11:00,
2013-06-06 23:16:00,57.6,54.4,30.09,SE,138,0.0,0.0,89,0.00,,,0.00,0,Wunderground v.1.15,2013-06-07 03:16:00,
2013-06-06 23:26:00,57.6,54.7,30.09,SE,138,0.0,0.0,90,0.00,,,0.00,0,Wunderground v.1.15,2013-06-07 03:26:00,
2013-06-06 23:31:00,57.4,54.5,30.09,SE,138,0.0,0.0,90,0.00,,,0.00,0,Wunderground v.1.15,2013-06-07 03:31:00,
2013-06-06 23:36:00,57.3,54.7,30.09,SE,138,0.0,0.0,91,0.00,,,0.00,0,Wunderground v.1.15,2013-06-07 03:36:00,
2013-06-06 23:51:00,57.1,54.5,30.09,SE,138,0.0,0.0,91,0.00,,,0.00,0,Wunderground v.1.15,2013-06-07 03:51:00,